UAL1909 MMVR-KIAH

Flight info

Callsign UAL1909
Flight time N/A
Altitude 32000
Route DURIB UT61 AVALI UT48 MAM DCT CRP HTOWN3
Aircraft B738/M-SDE2E3FGHIRWXY/LB1

Departure

Time 2026-04-24 00:32
Airport General Heriberto Jara International Airport (MMVR)

Arrival

Time N/A
Airport George Bush Intercontinental Airport (KIAH)
Time Latitude Longitude Altitude Speed Heading
2026-04-24 00:06 19.14256 -96.18443 76 ft 0 kts 96°
2026-04-24 00:09 19.14217 -96.18440 70 ft 0 kts 101°
2026-04-24 00:22 19.14220 -96.18458 68 ft 4 kts 97°
2026-04-24 00:22 19.14222 -96.18486 69 ft 4 kts 88°
2026-04-24 00:23 19.14218 -96.18514 70 ft 4 kts 63°
2026-04-24 00:23 19.14204 -96.18530 68 ft 2 kts 12°
2026-04-24 00:23 19.14199 -96.18531 70 ft 0 kts 12°
2026-04-24 00:27 19.14231 -96.18524 65 ft 10 kts 11°
2026-04-24 00:27 19.14325 -96.18515 72 ft 16 kts 333°
2026-04-24 00:27 19.14298 -96.18594 76 ft 15 kts 197°
2026-04-24 00:27 19.14205 -96.18634 69 ft 14 kts 214°
2026-04-24 00:28 19.14128 -96.18699 69 ft 14 kts 220°
2026-04-24 00:28 19.14064 -96.18756 78 ft 8 kts 221°
2026-04-24 00:28 19.14023 -96.18795 77 ft 8 kts 221°
2026-04-24 00:28 19.13983 -96.18832 84 ft 8 kts 221°
2026-04-24 00:29 19.13938 -96.18867 71 ft 9 kts 211°
2026-04-24 00:29 19.13861 -96.18889 83 ft 14 kts 191°
2026-04-24 00:29 19.13732 -96.18914 83 ft 24 kts 191°
2026-04-24 00:29 19.13542 -96.18952 86 ft 32 kts 190°
2026-04-24 00:30 19.13300 -96.19004 91 ft 38 kts 189°
2026-04-24 00:30 19.13047 -96.19056 91 ft 36 kts 192°
2026-04-24 00:30 19.12847 -96.19075 91 ft 25 kts 258°
2026-04-24 00:30 19.12921 -96.19081 91 ft 12 kts 11°
2026-04-24 00:31 19.12962 -96.19073 91 ft 1 kts
2026-04-24 00:31 19.13015 -96.19062 92 ft 29 kts 12°
2026-04-24 00:31 19.13520 -96.18957 87 ft 116 kts 11°
2026-04-24 00:31 19.14563 -96.18738 150 ft 182 kts 11°
2026-04-24 00:32 19.15773 -96.18277 1033 ft 191 kts 17°
2026-04-24 00:32 19.17054 -96.17714 1918 ft 205 kts 17°
2026-04-24 00:32 19.18391 -96.17178 2999 ft 201 kts
2026-04-24 00:32 19.19746 -96.17048 4139 ft 196 kts
2026-04-24 00:33 19.21189 -96.16920 4761 ft 216 kts
2026-04-24 00:33 19.22708 -96.16782 5495 ft 222 kts
2026-04-24 00:33 19.24245 -96.16590 6234 ft 229 kts
2026-04-24 00:33 19.25860 -96.16393 6932 ft 237 kts 359°
2026-04-24 00:34 19.27515 -96.16462 7666 ft 238 kts 347°
2026-04-24 00:34 19.29113 -96.16925 8375 ft 240 kts 334°
2026-04-24 00:34 19.30631 -96.17678 9102 ft 241 kts 327°
2026-04-24 00:34 19.31988 -96.18702 9818 ft 241 kts 311°
2026-04-24 00:35 19.32976 -96.20198 10138 ft 258 kts 295°
2026-04-24 00:35 19.33847 -96.21892 10754 ft 265 kts 299°
2026-04-24 00:35 19.34782 -96.23559 11625 ft 260 kts 301°
2026-04-24 00:35 19.35609 -96.25225 12348 ft 256 kts 276°
2026-04-24 00:36 19.35335 -96.26996 13250 ft 243 kts 245°
2026-04-24 00:36 19.34599 -96.28580 14087 ft 236 kts 244°
2026-04-24 00:36 19.33875 -96.30140 14696 ft 240 kts 244°
2026-04-24 00:36 19.33305 -96.31821 15216 ft 247 kts 267°
2026-04-24 00:37 19.33709 -96.33560 15788 ft 248 kts 304°
2026-04-24 00:37 19.34523 -96.34404 16161 ft 251 kts 328°
2026-04-24 00:37 19.36823 -96.34781 16687 ft 267 kts 10°
2026-04-24 00:37 19.38651 -96.34335 17097 ft 273 kts
2026-04-24 00:38 19.40557 -96.34217 17459 ft 277 kts 354°
2026-04-24 00:38 19.42488 -96.34480 17830 ft 283 kts 344°
2026-04-24 00:38 19.44400 -96.35054 18211 ft 289 kts 337°
2026-04-24 00:38 19.45678 -96.35579 18462 ft 294 kts 334°
2026-04-24 00:39 19.47542 -96.36472 18816 ft 302 kts 332°
2026-04-24 00:39 19.49452 -96.37460 19181 ft 310 kts 331°
2026-04-24 00:39 19.51405 -96.38494 19546 ft 318 kts 330°
2026-04-24 00:39 19.53413 -96.39561 19910 ft 326 kts 331°
2026-04-24 00:40 19.55467 -96.40651 20269 ft 334 kts 331°
2026-04-24 00:40 19.57577 -96.41770 20640 ft 342 kts 331°
2026-04-24 00:40 19.59729 -96.42910 20999 ft 350 kts 331°
2026-04-24 00:40 19.61936 -96.44079 21360 ft 358 kts 331°
2026-04-24 00:41 19.64183 -96.45270 21713 ft 365 kts 331°
2026-04-24 00:41 19.66475 -96.46485 22069 ft 371 kts 331°
2026-04-24 00:41 19.68797 -96.47716 22424 ft 377 kts 331°
2026-04-24 00:41 19.71160 -96.48969 22774 ft 381 kts 331°
2026-04-24 00:42 19.73524 -96.50223 22100 ft 382 kts 333°
2026-04-24 00:42 19.75861 -96.51460 22467 ft 369 kts 332°
2026-04-24 00:42 19.78138 -96.52668 22804 ft 364 kts 332°
2026-04-24 00:42 19.80405 -96.53874 23167 ft 366 kts 332°
2026-04-24 00:43 19.82686 -96.55088 23528 ft 368 kts 332°
2026-04-24 00:43 19.84986 -96.56311 23820 ft 370 kts 332°
2026-04-24 00:43 19.87292 -96.57537 24123 ft 372 kts 332°
2026-04-24 00:43 19.89610 -96.58767 24455 ft 373 kts 332°
2026-04-24 00:44 19.91934 -96.60005 24747 ft 375 kts 332°
2026-04-24 00:44 19.94270 -96.61254 25078 ft 377 kts 332°
2026-04-24 00:44 19.96610 -96.62506 25492 ft 376 kts 332°
2026-04-24 00:44 19.98943 -96.63753 25960 ft 375 kts 332°
2026-04-24 00:45 20.01272 -96.64999 26431 ft 373 kts 332°
2026-04-24 00:45 20.03556 -96.66220 26902 ft 372 kts 332°
2026-04-24 00:45 20.05858 -96.67452 27385 ft 370 kts 332°
2026-04-24 00:45 20.08151 -96.68679 27861 ft 368 kts 332°
2026-04-24 00:46 20.10428 -96.69899 28358 ft 365 kts 332°
2026-04-24 00:46 20.12689 -96.71109 28867 ft 362 kts 332°
2026-04-24 00:46 20.14933 -96.72311 29385 ft 359 kts 333°
2026-04-24 00:46 20.17151 -96.73498 29903 ft 356 kts 333°
2026-04-24 00:47 20.19441 -96.74462 30345 ft 353 kts 342°
2026-04-24 00:47 20.21826 -96.75013 30798 ft 349 kts 350°
2026-04-24 00:47 20.24221 -96.75332 31261 ft 344 kts 351°
2026-04-24 00:47 20.26587 -96.75629 31715 ft 340 kts 351°
2026-04-24 00:48 20.31381 -96.76238 31828 ft 355 kts 351°
2026-04-24 00:48 20.36413 -96.76897 31833 ft 373 kts 351°
2026-04-24 00:49 20.41686 -96.77597 31832 ft 390 kts 351°
2026-04-24 00:49 20.47153 -96.78326 31832 ft 406 kts 351°
2026-04-24 00:50 20.52862 -96.79087 31826 ft 421 kts 351°
2026-04-24 00:50 20.58763 -96.79874 31827 ft 434 kts 351°
2026-04-24 00:51 20.64799 -96.80681 31800 ft 438 kts 351°
2026-04-24 00:51 20.70834 -96.81541 31799 ft 433 kts 350°
2026-04-24 00:52 20.76746 -96.82371 31828 ft 428 kts 351°
2026-04-24 00:52 20.82670 -96.83161 31813 ft 430 kts 351°
2026-04-24 00:53 20.88620 -96.83952 31826 ft 432 kts 351°
2026-04-24 00:53 20.94601 -96.84753 31827 ft 434 kts 350°
2026-04-24 00:54 21.00607 -96.85561 31834 ft 435 kts 350°
2026-04-24 00:54 21.06626 -96.86372 31812 ft 436 kts 350°
2026-04-24 00:55 21.12646 -96.87183 31818 ft 436 kts 350°
2026-04-24 00:55 21.18667 -96.87995 31817 ft 436 kts 350°
2026-04-24 00:56 21.24680 -96.88806 31817 ft 435 kts 350°
2026-04-24 00:56 21.30689 -96.89618 31819 ft 435 kts 350°
2026-04-24 00:57 21.36687 -96.90429 31820 ft 434 kts 350°
2026-04-24 00:58 21.45675 -96.91646 31819 ft 433 kts 350°
2026-04-24 00:58 21.51653 -96.92456 31820 ft 433 kts 350°
2026-04-24 00:59 21.57590 -96.93274 31819 ft 433 kts 350°
2026-04-24 00:59 21.63563 -96.94100 31822 ft 433 kts 350°
2026-04-24 01:00 21.69533 -96.94926 31821 ft 433 kts 350°
2026-04-24 01:00 21.75507 -96.95752 31824 ft 432 kts 350°
2026-04-24 01:01 21.81471 -96.96573 31822 ft 432 kts 350°
2026-04-24 01:01 21.87428 -96.97388 31822 ft 432 kts 350°
2026-04-24 01:02 21.93390 -96.98204 31825 ft 432 kts 350°
2026-04-24 01:02 21.99343 -96.99021 31845 ft 431 kts 350°
2026-04-24 01:03 22.05294 -96.99838 31821 ft 430 kts 350°
2026-04-24 01:03 22.11224 -97.00653 31820 ft 429 kts 350°
2026-04-24 01:04 22.17139 -97.01467 31822 ft 428 kts 350°
2026-04-24 01:04 22.23032 -97.02279 31827 ft 427 kts 350°
2026-04-24 01:05 22.28919 -97.03090 31831 ft 426 kts 350°
2026-04-24 01:05 22.34792 -97.03901 31836 ft 425 kts 349°
2026-04-24 01:06 22.40659 -97.04711 31830 ft 425 kts 349°
2026-04-24 01:06 22.46518 -97.05521 31833 ft 425 kts 349°
2026-04-24 01:07 22.52382 -97.06332 31832 ft 425 kts 349°
2026-04-24 01:07 22.58252 -97.07145 31835 ft 425 kts 349°
2026-04-24 01:08 22.64127 -97.07959 31846 ft 426 kts 349°
2026-04-24 01:08 22.69971 -97.08769 31838 ft 426 kts 349°
2026-04-24 01:09 22.75854 -97.09585 31838 ft 427 kts 349°
2026-04-24 01:09 22.81747 -97.10404 31836 ft 427 kts 349°
2026-04-24 01:10 22.87641 -97.11223 31835 ft 427 kts 349°
2026-04-24 01:10 22.93538 -97.12044 31837 ft 427 kts 349°
2026-04-24 01:11 22.99436 -97.12865 31842 ft 427 kts 349°
2026-04-24 01:11 23.05328 -97.13687 31838 ft 427 kts 349°
2026-04-24 01:12 23.11215 -97.14508 31832 ft 426 kts 349°
2026-04-24 01:12 23.17093 -97.15328 31833 ft 426 kts 349°
2026-04-24 01:13 23.22962 -97.16146 31834 ft 425 kts 349°
2026-04-24 01:13 23.28829 -97.16964 31846 ft 425 kts 349°
2026-04-24 01:14 23.34690 -97.17782 31832 ft 424 kts 349°
2026-04-24 01:14 23.40541 -97.18599 31837 ft 424 kts 349°
2026-04-24 01:15 23.46385 -97.19416 31836 ft 423 kts 349°
2026-04-24 01:15 23.52227 -97.20233 31836 ft 423 kts 349°
2026-04-24 01:16 23.58067 -97.21052 31839 ft 423 kts 349°
2026-04-24 01:16 23.63907 -97.21871 31838 ft 423 kts 348°
2026-04-24 01:17 23.69753 -97.22691 31835 ft 424 kts 348°
2026-04-24 01:17 23.75595 -97.23512 31837 ft 424 kts 348°
2026-04-24 01:18 23.81446 -97.24334 31839 ft 424 kts 348°
2026-04-24 01:18 23.87253 -97.25151 31839 ft 424 kts 348°
2026-04-24 01:19 23.93104 -97.25975 31848 ft 424 kts 348°
2026-04-24 01:19 23.98956 -97.26801 31839 ft 424 kts 348°
2026-04-24 01:20 24.04808 -97.27627 31839 ft 424 kts 348°
2026-04-24 01:20 24.10656 -97.28452 31839 ft 424 kts 348°
2026-04-24 01:21 24.16499 -97.29278 31841 ft 424 kts 348°
2026-04-24 01:21 24.22348 -97.30106 31855 ft 423 kts 348°
2026-04-24 01:22 24.28187 -97.30933 31834 ft 423 kts 348°
2026-04-24 01:22 24.34027 -97.31761 31836 ft 423 kts 348°
2026-04-24 01:23 24.39861 -97.32589 31839 ft 422 kts 348°
2026-04-24 01:23 24.45690 -97.33417 31834 ft 422 kts 348°
2026-04-24 01:24 24.51511 -97.34245 31839 ft 422 kts 348°
2026-04-24 01:24 24.57330 -97.35079 31840 ft 422 kts 348°
2026-04-24 01:25 24.63149 -97.35921 31833 ft 422 kts 348°
2026-04-24 01:25 24.68963 -97.36763 31842 ft 422 kts 348°
2026-04-24 01:26 24.73797 -97.37464 31838 ft 422 kts 348°
2026-04-24 01:26 24.79617 -97.38307 31830 ft 422 kts 348°
2026-04-24 01:27 24.85439 -97.39151 31850 ft 422 kts 348°
2026-04-24 01:27 24.91267 -97.39998 31839 ft 422 kts 348°
2026-04-24 01:28 24.97096 -97.40845 31833 ft 423 kts 348°
2026-04-24 01:28 25.02949 -97.41696 31848 ft 429 kts 348°
2026-04-24 01:29 25.08948 -97.42558 31843 ft 440 kts 348°
2026-04-24 01:29 25.14986 -97.43417 31846 ft 440 kts 348°
2026-04-24 01:30 25.21048 -97.44282 31837 ft 439 kts 348°
2026-04-24 01:30 25.27101 -97.45150 31837 ft 438 kts 348°
2026-04-24 01:31 25.33144 -97.46018 31841 ft 438 kts 348°
2026-04-24 01:31 25.39176 -97.46887 31839 ft 437 kts 348°
2026-04-24 01:32 25.45207 -97.47761 31855 ft 437 kts 348°
2026-04-24 01:32 25.51235 -97.48636 31844 ft 437 kts 348°
2026-04-24 01:33 25.57258 -97.49511 31838 ft 436 kts 347°
2026-04-24 01:33 25.63279 -97.50387 31841 ft 436 kts 347°
2026-04-24 01:34 25.69297 -97.51263 31838 ft 436 kts 347°
2026-04-24 01:34 25.75314 -97.52139 31841 ft 436 kts 348°
2026-04-24 01:35 25.81421 -97.52383 31853 ft 443 kts 356°
2026-04-24 01:35 25.87588 -97.52101 31837 ft 444 kts 357°
2026-04-24 01:36 25.93758 -97.51817 31838 ft 444 kts 356°
2026-04-24 01:36 25.99923 -97.51570 31834 ft 444 kts 356°
2026-04-24 01:37 26.06059 -97.51343 31830 ft 444 kts 356°
2026-04-24 01:37 26.12237 -97.51119 31847 ft 444 kts 356°
2026-04-24 01:38 26.18420 -97.50894 31846 ft 445 kts 356°
2026-04-24 01:38 26.21525 -97.50723 30957 ft 454 kts 359°
2026-04-24 01:38 26.24784 -97.50141 27180 ft 514 kts 12°
2026-04-24 01:38 26.28138 -97.48640 25393 ft 524 kts 20°
2026-04-24 01:39 26.31429 -97.47032 24462 ft 510 kts 18°
2026-04-24 01:39 26.34665 -97.45635 24266 ft 481 kts 13°
2026-04-24 01:39 26.37717 -97.44539 24717 ft 450 kts 12°
2026-04-24 01:39 26.40602 -97.43492 24887 ft 423 kts 13°
2026-04-24 01:40 26.43420 -97.42414 24001 ft 426 kts 14°
2026-04-24 01:40 26.46167 -97.41376 23514 ft 417 kts
2026-04-24 01:40 26.48992 -97.40732 22742 ft 412 kts
2026-04-24 01:40 26.51796 -97.40236 23061 ft 404 kts
2026-04-24 01:41 26.54591 -97.40013 23478 ft 405 kts 359°
2026-04-24 01:41 26.57404 -97.39770 23823 ft 402 kts 359°
2026-04-24 01:41 26.60158 -97.39517 24450 ft 394 kts
2026-04-24 01:41 26.62867 -97.39188 24967 ft 391 kts
2026-04-24 01:42 26.65572 -97.39016 25403 ft 386 kts 352°
2026-04-24 01:42 26.68212 -97.39345 25897 ft 380 kts 346°
2026-04-24 01:42 26.70831 -97.39774 26365 ft 380 kts 346°
2026-04-24 01:42 26.73440 -97.40199 26848 ft 379 kts 346°
2026-04-24 01:43 26.76042 -97.40621 27336 ft 377 kts 346°
2026-04-24 01:43 26.78636 -97.41041 27834 ft 376 kts 346°
2026-04-24 01:43 26.81214 -97.41457 28343 ft 374 kts 346°
2026-04-24 01:43 26.83783 -97.41870 28858 ft 371 kts 346°
2026-04-24 01:44 26.86331 -97.42279 29382 ft 369 kts 346°
2026-04-24 01:44 26.88862 -97.42683 29912 ft 366 kts 346°
2026-04-24 01:44 26.91306 -97.43326 30353 ft 356 kts 334°
2026-04-24 01:44 26.93572 -97.44364 30842 ft 350 kts 332°
2026-04-24 01:45 26.95810 -97.45414 31306 ft 347 kts 334°
2026-04-24 01:45 26.98094 -97.46270 31789 ft 347 kts 339°
2026-04-24 01:45 27.00464 -97.46857 31806 ft 361 kts 345°
2026-04-24 01:45 27.03022 -97.47206 31856 ft 372 kts 349°
2026-04-24 01:46 27.05607 -97.47383 31861 ft 383 kts 352°
2026-04-24 01:46 27.11076 -97.47425 31861 ft 402 kts 355°
2026-04-24 01:47 27.16786 -97.47259 31860 ft 418 kts 355°
2026-04-24 01:47 27.22705 -97.47033 31856 ft 432 kts 356°
2026-04-24 01:48 27.28794 -97.46797 31871 ft 444 kts 356°
2026-04-24 01:48 27.35030 -97.46560 31846 ft 449 kts 356°
2026-04-24 01:48 27.38159 -97.46434 30687 ft 462 kts 357°
2026-04-24 01:49 27.41408 -97.46233 29171 ft 474 kts 358°
2026-04-24 01:49 27.44669 -97.46031 27602 ft 477 kts 358°
2026-04-24 01:49 27.47884 -97.46011 27646 ft 451 kts 354°
2026-04-24 01:49 27.50964 -97.46008 27353 ft 422 kts 358°
2026-04-24 01:50 27.53799 -97.45735 27820 ft 403 kts
2026-04-24 01:50 27.56545 -97.45208 27184 ft 396 kts
2026-04-24 01:50 27.59385 -97.44430 25229 ft 443 kts 12°
2026-04-24 01:50 27.62263 -97.43232 24261 ft 449 kts 19°
2026-04-24 01:51 27.65086 -97.41726 23126 ft 454 kts 18°
2026-04-24 01:51 27.68038 -97.40529 21872 ft 453 kts 10°
2026-04-24 01:51 27.71119 -97.39896 20877 ft 444 kts
2026-04-24 01:51 27.74229 -97.39859 19655 ft 441 kts 352°
2026-04-24 01:52 27.77233 -97.40450 19606 ft 420 kts 345°
2026-04-24 01:52 27.80004 -97.41098 19690 ft 400 kts 347°
2026-04-24 01:52 27.82720 -97.41474 19653 ft 387 kts 351°
2026-04-24 01:52 27.85391 -97.41570 19251 ft 384 kts 359°
2026-04-24 01:53 27.87999 -97.41221 19371 ft 371 kts
2026-04-24 01:53 27.90496 -97.40462 19620 ft 372 kts 11°
2026-04-24 01:53 27.93015 -97.39795 20117 ft 376 kts 12°
2026-04-24 01:53 27.95488 -97.38744 20590 ft 384 kts 21°